Year,Month,Day,Hour,Minute,Value (Times are PST for temperature in C)
2005,07,25,00,00,15.60
2005,07,25,00,01,15.60
2005,07,25,00,02,15.60
2005,07,25,00,03,15.60
2005,07,25,00,04,15.60
2005,07,25,00,05,15.60
2005,07,25,00,06,15.60
2005,07,25,00,07,15.60
2005,07,25,00,08,15.60
2005,07,25,00,09,15.60
2005,07,25,00,10,15.60
2005,07,25,00,11,15.60
2005,07,25,00,12,15.60
2005,07,25,00,13,15.60
2005,07,25,00,14,15.60
2005,07,25,00,15,15.50
2005,07,25,00,16,15.50
2005,07,25,00,17,15.50
2005,07,25,00,18,15.40
2005,07,25,00,19,15.40
2005,07,25,00,20,15.40
2005,07,25,00,21,15.30
2005,07,25,00,22,15.30
2005,07,25,00,23,15.30
2005,07,25,00,24,15.30
2005,07,25,00,25,15.30
2005,07,25,00,26,15.30
2005,07,25,00,27,15.20
2005,07,25,00,28,15.20
2005,07,25,00,29,15.20
2005,07,25,00,30,15.10
2005,07,25,00,31,15.10
2005,07,25,00,32,15.00
2005,07,25,00,33,15.00
2005,07,25,00,34,14.90
2005,07,25,00,35,14.80
2005,07,25,00,36,14.80
2005,07,25,00,37,14.80
2005,07,25,00,38,14.80
2005,07,25,00,39,14.80
2005,07,25,08,42,20.60
2005,07,25,08,43,20.60
2005,07,25,08,44,20.60
2005,07,25,08,45,20.50
2005,07,25,08,46,20.50
2005,07,25,08,47,20.60
2005,07,25,08,48,20.60
2005,07,25,08,49,20.60
2005,07,25,08,50,20.70
2005,07,25,08,51,20.70
2005,07,25,08,52,20.70
2005,07,25,08,53,20.80
2005,07,25,08,54,20.90
2005,07,25,08,55,21.00
2005,07,25,08,56,21.00
2005,07,25,08,57,21.00
2005,07,25,08,58,21.00
2005,07,25,08,59,21.10
2005,07,25,09,00,21.10
2005,07,25,09,01,21.10
2005,07,25,09,02,21.10
2005,07,25,09,03,21.10
2005,07,25,09,04,21.00
2005,07,25,09,05,20.90
2005,07,25,09,06,20.90
2005,07,25,09,07,21.00
2005,07,25,09,08,21.00
2005,07,25,09,09,21.00
2005,07,25,09,10,20.90
2005,07,25,09,11,20.90
2005,07,25,09,12,21.00
2005,07,25,09,13,21.00
2005,07,25,09,14,21.10
2005,07,25,09,15,21.10
2005,07,25,09,16,21.30
2005,07,25,09,17,21.40
2005,07,25,09,18,21.60
2005,07,25,09,19,21.60
2005,07,25,09,20,21.60
2005,07,25,09,21,21.50
2005,07,25,09,22,21.40
2005,07,25,09,23,21.40
2005,07,25,09,24,21.50
2005,07,25,09,25,21.60
2005,07,25,09,26,21.60
2005,07,25,09,27,21.50
2005,07,25,09,28,21.40
2005,07,25,09,29,21.40
2005,07,25,09,30,21.40
2005,07,25,09,31,21.40
2005,07,25,09,32,21.30
2005,07,25,09,33,21.20
2005,07,25,09,34,21.20
2005,07,25,09,38,21.40
2005,07,25,09,42,21.70
2005,07,25,09,46,21.90
2005,07,25,09,47,21.90
2005,07,25,09,56,21.80
2005,07,25,09,57,21.70
2005,07,25,09,58,21.60
2005,07,25,09,59,21.60
2005,07,25,10,00,21.40
2005,07,25,10,01,21.20
2005,07,25,10,02,21.00
2005,07,25,10,06,20.70
2005,07,25,10,10,20.90
2005,07,25,10,14,21.00
2005,07,25,10,15,21.00
2005,07,25,10,16,21.10
2005,07,25,10,17,21.10
2005,07,25,10,18,21.00
2005,07,25,10,19,21.00
2005,07,25,10,20,20.90
2005,07,25,10,21,20.90
2005,07,25,10,22,20.80
2005,07,25,10,23,20.70
2005,07,25,10,24,20.60
2005,07,25,10,25,20.50
2005,07,25,10,26,20.50
2005,07,25,10,27,20.40
2005,07,25,10,28,20.20
2005,07,25,10,29,20.10
2005,07,25,10,30,20.00
2005,07,25,10,31,19.90
2005,07,25,10,32,19.80
2005,07,25,10,33,19.90
2005,07,25,10,34,19.90
2005,07,25,10,35,19.90
2005,07,25,10,36,20.00
2005,07,25,10,37,20.10
2005,07,25,10,38,20.00
2005,07,25,10,39,19.90
2005,07,25,10,40,19.90
2005,07,25,10,41,20.10
2005,07,25,10,42,20.10
2005,07,25,10,43,19.90
2005,07,25,10,44,19.90
2005,07,25,10,45,20.10
2005,07,25,10,46,20.20
2005,07,25,10,47,20.20
2005,07,25,10,48,20.20
2005,07,25,10,49,20.20
2005,07,25,10,50,20.30
2005,07,25,10,51,20.40
2005,07,25,10,52,20.50
2005,07,25,10,53,20.70
2005,07,25,10,54,20.80
2005,07,25,10,55,21.00
2005,07,25,10,56,21.00
2005,07,25,10,57,21.00
2005,07,25,10,58,21.00
2005,07,25,10,59,21.00
2005,07,25,11,00,21.00
2005,07,25,11,01,21.00
2005,07,25,11,02,21.00
2005,07,25,11,03,21.00
2005,07,25,11,04,21.00
2005,07,25,11,05,20.90
2005,07,25,11,06,20.70
2005,07,25,11,07,20.60
2005,07,25,11,08,20.60
2005,07,25,11,09,20.70
2005,07,25,11,10,20.70
2005,07,25,11,11,20.70
2005,07,25,11,12,20.70
2005,07,25,11,13,20.60
2005,07,25,11,14,20.60
2005,07,25,11,15,20.70
2005,07,25,11,16,20.70
2005,07,25,11,17,20.60
2005,07,25,11,18,20.60
2005,07,25,11,19,20.50
2005,07,25,11,20,20.50
2005,07,25,11,21,20.50
2005,07,25,11,22,20.40
2005,07,25,11,23,20.50
2005,07,25,11,24,20.70
2005,07,25,11,25,20.70
2005,07,25,11,26,20.90
2005,07,25,11,27,21.00
2005,07,25,11,28,21.00
2005,07,25,11,29,20.90
2005,07,25,11,30,20.90
2005,07,25,11,31,20.80
2005,07,25,11,32,20.90
2005,07,25,11,33,20.90
2005,07,25,11,34,20.90
2005,07,25,11,35,20.80
2005,07,25,11,36,20.60
2005,07,25,11,37,20.50
2005,07,25,11,38,20.40
2005,07,25,11,39,20.40
2005,07,25,11,40,20.30
2005,07,25,11,41,20.30
2005,07,25,11,42,20.30
2005,07,25,11,43,20.30
2005,07,25,11,44,20.40
2005,07,25,11,45,20.50
2005,07,25,11,46,20.80
2005,07,25,11,47,21.10
2005,07,25,11,48,21.20
2005,07,25,11,49,21.30
2005,07,25,11,50,21.30
2005,07,25,11,51,21.10
2005,07,25,11,52,20.90
2005,07,25,11,53,20.80
2005,07,25,11,54,20.70
2005,07,25,11,55,20.70
2005,07,25,11,56,20.80
2005,07,25,11,57,21.00
2005,07,25,11,58,21.10
2005,07,25,11,59,21.40
2005,07,25,12,00,21.60
2005,07,25,12,01,21.70
2005,07,25,12,02,21.70
2005,07,25,12,03,21.70
2005,07,25,12,04,21.80
2005,07,25,12,05,21.80
2005,07,25,12,06,21.80
2005,07,25,12,07,21.90
2005,07,25,12,08,22.00
2005,07,25,12,09,22.10
2005,07,25,12,10,22.20
2005,07,25,12,11,22.20
2005,07,25,12,12,22.30
2005,07,25,12,13,22.20
2005,07,25,12,14,22.10
2005,07,25,12,15,22.00
2005,07,25,12,16,22.00
2005,07,25,12,17,22.10
2005,07,25,12,18,22.10
2005,07,25,12,19,22.30
2005,07,25,12,20,22.50
2005,07,25,12,21,22.60
2005,07,25,12,22,22.70
2005,07,25,12,23,22.80
2005,07,25,12,24,22.90
2005,07,25,12,25,22.90
2005,07,25,12,26,22.90
2005,07,25,12,27,22.90
2005,07,25,12,28,22.90
2005,07,25,12,29,23.00
2005,07,25,12,30,23.10
2005,07,25,12,31,23.20
2005,07,25,12,32,23.20
2005,07,25,12,33,23.10
2005,07,25,12,34,23.20
2005,07,25,12,35,23.20
2005,07,25,12,36,23.30
2005,07,25,12,37,23.30
2005,07,25,12,38,23.30
2005,07,25,12,39,23.30
2005,07,25,12,40,23.40
2005,07,25,12,41,23.40
2005,07,25,12,42,23.50
2005,07,25,12,43,23.50
2005,07,25,12,44,23.40
2005,07,25,12,45,23.20
2005,07,25,12,46,23.00
2005,07,25,12,47,22.80
2005,07,25,12,48,22.70
2005,07,25,12,49,22.60
2005,07,25,12,50,22.60
2005,07,25,12,51,22.60
2005,07,25,12,52,22.70
2005,07,25,12,53,22.70
2005,07,25,12,54,22.80
2005,07,25,12,55,22.80
2005,07,25,12,56,22.80
2005,07,25,12,57,22.90
2005,07,25,12,58,22.90
2005,07,25,12,59,22.90
2005,07,25,13,00,22.80
2005,07,25,13,01,22.80
2005,07,25,13,02,22.80
2005,07,25,13,03,22.90
2005,07,25,13,04,22.90
2005,07,25,13,05,22.90
2005,07,25,13,06,22.90
2005,07,25,13,07,22.90
2005,07,25,13,08,22.90
2005,07,25,13,09,23.00
2005,07,25,13,10,23.10
2005,07,25,13,11,23.20
2005,07,25,13,12,23.30
2005,07,25,13,13,23.20
2005,07,25,13,14,23.10
2005,07,25,13,15,23.10
2005,07,25,13,16,22.90
2005,07,25,13,17,22.90
2005,07,25,13,18,22.90
2005,07,25,13,19,22.80
2005,07,25,13,20,22.70
2005,07,25,13,21,22.60
2005,07,25,13,22,22.60
2005,07,25,13,23,22.50
2005,07,25,13,24,22.40
2005,07,25,13,25,22.40
2005,07,25,13,26,22.50
2005,07,25,13,27,22.60
2005,07,25,13,28,22.70
2005,07,25,13,29,22.80
2005,07,25,13,30,23.00
2005,07,25,13,31,23.10
2005,07,25,13,32,23.20
2005,07,25,13,33,23.30
2005,07,25,13,34,23.50
2005,07,25,13,35,23.60
2005,07,25,13,36,23.70
2005,07,25,13,37,23.70
2005,07,25,13,38,23.60
2005,07,25,13,39,23.60
2005,07,25,13,40,23.60
2005,07,25,13,41,23.60
2005,07,25,13,42,23.40
2005,07,25,13,43,23.30
2005,07,25,13,44,23.20
2005,07,25,13,45,23.00
2005,07,25,13,46,22.80
2005,07,25,13,47,22.60
2005,07,25,13,48,22.40
2005,07,25,13,49,22.20
2005,07,25,13,50,22.00
2005,07,25,13,51,22.00
2005,07,25,13,52,22.00
2005,07,25,13,53,22.00
2005,07,25,13,54,22.10
2005,07,25,13,55,22.10
2005,07,25,13,56,22.00
2005,07,25,13,57,21.90
2005,07,25,13,58,21.80
2005,07,25,13,59,21.70
2005,07,25,14,00,21.60
2005,07,25,14,01,21.60
2005,07,25,14,02,21.60
2005,07,25,14,03,21.60
2005,07,25,14,04,21.80
2005,07,25,14,05,21.80
2005,07,25,14,06,21.70
2005,07,25,14,07,21.70
2005,07,25,14,08,21.80
2005,07,25,14,09,21.90
2005,07,25,14,10,22.00
2005,07,25,14,11,22.00
2005,07,25,14,12,22.10
2005,07,25,14,13,22.10
2005,07,25,14,14,22.20
2005,07,25,14,15,22.20
2005,07,25,14,16,22.20
2005,07,25,14,17,22.30
2005,07,25,14,18,22.40
2005,07,25,14,19,22.60
2005,07,25,14,20,22.60
2005,07,25,14,21,22.80
2005,07,25,14,22,22.90
2005,07,25,14,23,22.90
2005,07,25,14,24,22.90
2005,07,25,14,25,23.00
2005,07,25,14,26,23.10
2005,07,25,14,27,23.20
2005,07,25,14,28,23.40
2005,07,25,14,29,23.50
2005,07,25,14,30,23.60
2005,07,25,14,31,23.70
2005,07,25,14,32,23.60
2005,07,25,14,33,23.50
2005,07,25,14,34,23.40
2005,07,25,14,35,23.60
2005,07,25,14,36,23.50
2005,07,25,14,37,23.60
2005,07,25,14,38,23.50
2005,07,25,14,39,23.40
2005,07,25,14,40,23.50
2005,07,25,14,41,23.70
2005,07,25,14,42,23.80
2005,07,25,14,43,23.80
2005,07,25,14,44,24.00
2005,07,25,14,45,24.10
2005,07,25,14,46,24.20
2005,07,25,14,47,24.20
2005,07,25,14,48,24.20
2005,07,25,14,49,24.00
2005,07,25,14,50,23.80
2005,07,25,14,51,23.80
2005,07,25,14,52,23.70
2005,07,25,14,53,23.50
2005,07,25,14,54,23.40
2005,07,25,14,55,23.40
2005,07,25,14,56,23.40
2005,07,25,14,57,23.50
2005,07,25,14,58,23.70
2005,07,25,14,59,23.70
2005,07,25,15,00,23.70
2005,07,25,15,01,23.70
2005,07,25,15,02,23.70
2005,07,25,15,03,23.60
2005,07,25,15,04,23.60
2005,07,25,15,05,23.60
2005,07,25,15,06,23.70
2005,07,25,15,07,23.70
2005,07,25,15,08,23.80
2005,07,25,15,09,24.00
2005,07,25,15,10,24.10
2005,07,25,15,11,24.10
2005,07,25,15,12,24.20
2005,07,25,15,13,24.40
2005,07,25,15,14,24.50
2005,07,25,15,15,24.60
2005,07,25,15,16,24.70
2005,07,25,15,17,24.80
2005,07,25,15,18,24.70
2005,07,25,15,19,24.70
2005,07,25,15,20,24.80
2005,07,25,15,21,24.80
2005,07,25,15,22,24.70
2005,07,25,15,23,24.60
2005,07,25,15,24,24.60
2005,07,25,15,25,24.40
2005,07,25,15,26,24.30
2005,07,25,15,27,24.10
2005,07,25,15,28,24.10
2005,07,25,15,29,24.10
2005,07,25,15,30,24.10
2005,07,25,15,31,23.90
2005,07,25,15,32,23.80
2005,07,25,15,33,23.80
2005,07,25,15,34,23.80
2005,07,25,15,35,23.80
2005,07,25,15,36,23.90
2005,07,25,15,37,23.90
2005,07,25,15,38,23.90
2005,07,25,15,39,24.10
2005,07,25,15,40,24.10
2005,07,25,15,41,24.00
2005,07,25,15,42,23.90
2005,07,25,15,43,23.90
2005,07,25,15,44,23.90
2005,07,25,15,45,23.80
2005,07,25,15,46,23.80
2005,07,25,15,47,23.70
2005,07,25,15,48,23.80
2005,07,25,15,49,23.80
2005,07,25,15,50,23.70
2005,07,25,15,51,23.60
2005,07,25,15,52,23.60
2005,07,25,15,53,23.60
2005,07,25,15,54,23.60
2005,07,25,15,55,23.60
2005,07,25,15,56,23.60
2005,07,25,15,57,23.60
2005,07,25,15,58,23.70
2005,07,25,15,59,23.70
2005,07,25,16,00,23.70
2005,07,25,16,01,23.50
2005,07,25,16,02,23.40
2005,07,25,16,03,23.30
2005,07,25,16,04,23.30
2005,07,25,16,05,23.30
2005,07,25,16,06,23.30
2005,07,25,16,07,23.20
2005,07,25,16,08,23.20
2005,07,25,16,09,23.20
2005,07,25,16,10,23.20
2005,07,25,16,11,23.10
2005,07,25,16,12,23.00
2005,07,25,16,13,22.90
2005,07,25,16,14,23.00
2005,07,25,16,15,23.10
2005,07,25,16,16,23.10
2005,07,25,16,17,23.10
2005,07,25,16,18,23.20
2005,07,25,16,19,23.30
2005,07,25,16,20,23.40
2005,07,25,16,21,23.40
2005,07,25,16,22,23.50
2005,07,25,16,23,23.60
2005,07,25,16,24,23.70
2005,07,25,16,25,23.70
2005,07,25,16,26,23.70
2005,07,25,16,27,23.70
2005,07,25,16,28,23.70
2005,07,25,16,29,23.70
2005,07,25,16,30,23.70
2005,07,25,16,31,23.70
2005,07,25,16,32,23.80
2005,07,25,16,33,23.90
2005,07,25,16,34,23.90
2005,07,25,16,35,24.00
2005,07,25,16,36,24.10
2005,07,25,16,37,24.10
2005,07,25,16,38,24.20
2005,07,25,16,39,24.30
2005,07,25,16,40,24.40
2005,07,25,16,41,24.40
2005,07,25,16,42,24.40
2005,07,25,16,43,24.50
2005,07,25,16,44,24.50
2005,07,25,16,45,24.50
2005,07,25,16,46,24.50
2005,07,25,16,47,24.40
2005,07,25,16,48,24.30
2005,07,25,16,49,24.40
2005,07,25,16,50,24.40
2005,07,25,16,51,24.50
2005,07,25,16,52,24.50
2005,07,25,16,53,24.40
2005,07,25,16,54,24.40
2005,07,25,16,55,24.40
2005,07,25,16,56,24.40
2005,07,25,16,57,24.50
2005,07,25,16,58,24.50
2005,07,25,16,59,24.60
2005,07,25,17,00,24.50
2005,07,25,17,01,24.40
2005,07,25,17,02,24.40
2005,07,25,17,03,24.30
2005,07,25,17,04,24.30
2005,07,25,17,05,24.30
2005,07,25,17,06,24.30
2005,07,25,17,07,24.30
2005,07,25,17,08,24.40
2005,07,25,17,09,24.40
2005,07,25,17,10,24.30
2005,07,25,17,11,24.20
2005,07,25,17,12,24.20
2005,07,25,17,13,24.20
2005,07,25,17,14,24.20
2005,07,25,17,15,24.30
2005,07,25,17,16,24.40
2005,07,25,17,17,24.50
2005,07,25,17,18,24.50
2005,07,25,17,19,24.60
2005,07,25,17,20,24.60
2005,07,25,17,21,24.80
2005,07,25,17,22,24.90
2005,07,25,17,23,24.90
2005,07,25,17,24,24.90
2005,07,25,17,25,25.00
2005,07,25,17,26,25.00
2005,07,25,17,27,25.00
2005,07,25,17,28,25.00
2005,07,25,17,29,25.10
2005,07,25,17,30,25.10
2005,07,25,17,31,25.10
2005,07,25,17,32,25.10
2005,07,25,17,33,25.00
2005,07,25,17,34,24.90
2005,07,25,17,35,24.80
2005,07,25,17,36,24.80
2005,07,25,17,37,24.80
2005,07,25,17,38,24.80
2005,07,25,17,39,24.70
2005,07,25,17,40,24.60
2005,07,25,17,41,24.50
2005,07,25,17,42,24.50
2005,07,25,17,43,24.60
2005,07,25,17,44,24.60
2005,07,25,17,45,24.80
2005,07,25,17,46,24.90
2005,07,25,17,47,24.90
2005,07,25,17,48,24.90
2005,07,25,17,49,24.90
2005,07,25,17,50,24.80
2005,07,25,17,51,24.80
2005,07,25,17,52,24.80
2005,07,25,17,53,24.80
2005,07,25,17,54,24.80
2005,07,25,17,55,24.90
2005,07,25,17,56,24.80
2005,07,25,17,57,24.90
2005,07,25,17,58,24.90
2005,07,25,17,59,24.90
2005,07,25,18,00,24.90
2005,07,25,18,01,24.90
2005,07,25,18,02,24.90
2005,07,25,18,03,24.70
2005,07,25,18,04,24.70
2005,07,25,18,05,24.70
2005,07,25,18,06,24.70
2005,07,25,18,07,24.60
2005,07,25,18,08,24.50
2005,07,25,18,09,24.50
2005,07,25,18,10,24.50
2005,07,25,18,11,24.50
2005,07,25,18,12,24.50
2005,07,25,18,13,24.50
2005,07,25,18,14,24.60
2005,07,25,18,15,24.60
2005,07,25,18,16,24.70
2005,07,25,18,17,24.70
2005,07,25,18,18,24.80
2005,07,25,18,19,24.90
2005,07,25,18,20,24.90
2005,07,25,18,21,24.90
2005,07,25,18,22,24.90
2005,07,25,18,23,24.90
2005,07,25,18,24,25.00
2005,07,25,18,25,25.00
2005,07,25,18,26,25.10
2005,07,25,18,27,25.00
2005,07,25,18,28,24.90
2005,07,25,18,29,24.80
2005,07,25,18,30,24.70
2005,07,25,18,31,24.60
2005,07,25,18,32,24.60
2005,07,25,18,33,24.50
2005,07,25,18,34,24.50
2005,07,25,18,35,24.50
2005,07,25,18,36,24.50
2005,07,25,18,37,24.40
2005,07,25,18,38,24.40
2005,07,25,18,39,24.40
2005,07,25,18,40,24.40
2005,07,25,18,41,24.40
2005,07,25,18,42,24.30
2005,07,25,18,43,24.30
2005,07,25,18,44,24.20
2005,07,25,18,45,24.20
2005,07,25,18,46,24.10
2005,07,25,18,47,24.10
2005,07,25,18,48,24.10
2005,07,25,18,49,24.10
2005,07,25,18,50,24.10
2005,07,25,18,51,24.10
2005,07,25,18,52,24.10
2005,07,25,18,53,24.10
2005,07,25,18,54,24.10
2005,07,25,18,55,24.10
2005,07,25,18,56,24.10
2005,07,25,18,57,24.00
2005,07,25,18,58,24.00
2005,07,25,18,59,23.90
2005,07,25,19,00,23.90
2005,07,25,19,01,24.00
2005,07,25,19,02,24.00
2005,07,25,19,03,23.90
2005,07,25,19,04,23.90
2005,07,25,19,05,23.80
2005,07,25,19,06,23.80
2005,07,25,19,07,23.80
2005,07,25,19,08,23.80
2005,07,25,19,09,23.80
2005,07,25,19,10,23.70
2005,07,25,19,11,23.70
2005,07,25,19,12,23.60
2005,07,25,19,13,23.50
2005,07,25,19,14,23.40
2005,07,25,19,15,23.40
2005,07,25,19,16,23.40
2005,07,25,19,17,23.30
2005,07,25,19,18,23.30
2005,07,25,19,19,23.30
2005,07,25,19,20,23.20
2005,07,25,19,21,23.10
2005,07,25,19,22,23.10
2005,07,25,19,23,23.10
2005,07,25,19,24,23.00
2005,07,25,19,25,22.90
2005,07,25,19,26,22.90
2005,07,25,19,27,22.90
2005,07,25,19,28,22.90
2005,07,25,19,29,22.80
2005,07,25,19,30,22.80
2005,07,25,19,31,22.70
2005,07,25,19,32,22.70
2005,07,25,19,33,22.70
2005,07,25,19,34,22.70
2005,07,25,19,35,22.60
2005,07,25,19,36,22.60
2005,07,25,19,37,22.50
2005,07,25,19,38,22.50
2005,07,25,19,39,22.40
2005,07,25,19,40,22.40
2005,07,25,19,41,22.40
2005,07,25,19,42,22.30
2005,07,25,19,43,22.30
2005,07,25,19,44,22.30
2005,07,25,19,45,22.30
2005,07,25,19,46,22.30
2005,07,25,19,47,22.30
2005,07,25,19,48,22.30
2005,07,25,19,49,22.30
2005,07,25,19,50,22.20
2005,07,25,19,51,22.20
2005,07,25,19,52,22.10
2005,07,25,19,53,22.10
2005,07,25,19,54,22.00
2005,07,25,19,55,22.00
2005,07,25,19,56,22.10
2005,07,25,19,57,22.10
2005,07,25,19,58,22.10
2005,07,25,19,59,22.10
2005,07,25,20,00,22.10
2005,07,25,20,01,22.00
2005,07,25,20,02,22.00
2005,07,25,20,03,21.90
2005,07,25,20,04,21.90
2005,07,25,20,05,21.80
2005,07,25,20,06,21.70
2005,07,25,20,07,21.70
2005,07,25,20,08,21.70
2005,07,25,20,09,21.60
2005,07,25,20,10,21.60
2005,07,25,20,11,21.60
2005,07,25,20,12,21.60
2005,07,25,20,13,21.50
2005,07,25,20,14,21.40
2005,07,25,20,15,21.40
2005,07,25,20,16,21.40
2005,07,25,20,17,21.40
2005,07,25,20,18,21.30
2005,07,25,20,19,21.30
2005,07,25,20,20,21.30
2005,07,25,20,21,21.30
2005,07,25,20,22,21.30
2005,07,25,20,23,21.20
2005,07,25,20,24,21.10
2005,07,25,20,25,21.10
2005,07,25,20,26,21.00
2005,07,25,20,27,21.00
2005,07,25,20,28,20.90
2005,07,25,20,29,20.90
2005,07,25,20,30,20.80
2005,07,25,20,31,20.80
2005,07,25,20,32,20.70
2005,07,25,20,33,20.70
2005,07,25,20,34,20.60
2005,07,25,20,35,20.50
2005,07,25,20,36,20.50
2005,07,25,20,37,20.40
2005,07,25,20,38,20.40
2005,07,25,20,39,20.30
2005,07,25,20,40,20.30
2005,07,25,20,41,20.20
2005,07,25,20,42,20.20
2005,07,25,20,43,20.20
2005,07,25,20,44,20.20
2005,07,25,20,45,20.10
2005,07,25,20,46,20.10
2005,07,25,20,47,20.00
2005,07,25,20,48,19.90
2005,07,25,20,49,19.90
2005,07,25,20,50,19.90
2005,07,25,20,51,19.90
2005,07,25,20,52,19.90
2005,07,25,20,53,19.80
2005,07,25,20,54,19.80
2005,07,25,20,55,19.70
2005,07,25,20,56,19.70
2005,07,25,20,57,19.70
2005,07,25,20,58,19.60
2005,07,25,20,59,19.60
2005,07,25,21,00,19.50
2005,07,25,21,01,19.40
2005,07,25,21,02,19.40
2005,07,25,21,03,19.30
2005,07,25,21,04,19.30
2005,07,25,21,05,19.20
2005,07,25,21,06,19.10
2005,07,25,21,07,19.10
2005,07,25,21,08,19.00
2005,07,25,21,09,18.90
2005,07,25,21,10,18.90
2005,07,25,21,11,18.80
2005,07,25,21,12,18.70
2005,07,25,21,13,18.70
2005,07,25,21,14,18.60
2005,07,25,21,15,18.50
2005,07,25,21,16,18.50
2005,07,25,21,17,18.40
2005,07,25,21,18,18.40
2005,07,25,21,19,18.30
2005,07,25,21,20,18.30
2005,07,25,21,21,18.20
2005,07,25,21,22,18.20
2005,07,25,21,23,18.10
2005,07,25,21,24,18.00
2005,07,25,21,25,17.90
2005,07,25,21,26,17.90
2005,07,25,21,27,17.90
2005,07,25,21,28,17.90
2005,07,25,21,29,17.80
2005,07,25,21,30,17.80
2005,07,25,21,31,17.70
2005,07,25,21,32,17.70
2005,07,25,21,33,17.60
2005,07,25,21,34,17.60
2005,07,25,21,35,17.60
2005,07,25,21,36,17.50
2005,07,25,21,37,17.50
2005,07,25,21,38,17.50
2005,07,25,21,39,17.40
2005,07,25,21,40,17.40
2005,07,25,21,41,17.30
2005,07,25,21,42,17.30
2005,07,25,21,43,17.30
2005,07,25,21,44,17.30
2005,07,25,21,45,17.20
2005,07,25,21,46,17.20
2005,07,25,21,47,17.20
2005,07,25,21,48,17.10
2005,07,25,21,49,17.10
2005,07,25,21,50,17.10
2005,07,25,21,51,17.10
2005,07,25,21,52,17.00
2005,07,25,21,53,17.00
2005,07,25,21,54,17.00
2005,07,25,21,55,17.00
2005,07,25,21,56,16.90
2005,07,25,21,57,16.90
2005,07,25,21,58,16.90
2005,07,25,21,59,16.80
2005,07,25,22,00,16.80
2005,07,25,22,01,16.80
2005,07,25,22,02,16.80
2005,07,25,22,03,16.80
2005,07,25,22,04,16.80
2005,07,25,22,05,16.80
2005,07,25,22,06,16.70
2005,07,25,22,07,16.70
2005,07,25,22,08,16.70
2005,07,25,22,09,16.70
2005,07,25,22,10,16.70
2005,07,25,22,11,16.70
2005,07,25,22,12,16.70
2005,07,25,22,13,16.70
2005,07,25,22,14,16.70
2005,07,25,22,15,16.60
2005,07,25,22,16,16.60
2005,07,25,22,17,16.50
2005,07,25,22,18,16.40
2005,07,25,22,19,16.40
2005,07,25,22,20,16.40
2005,07,25,22,21,16.30
2005,07,25,22,22,16.30
2005,07,25,22,23,16.20
2005,07,25,22,24,16.20
2005,07,25,22,25,16.10
2005,07,25,22,26,16.10
2005,07,25,22,27,16.10
2005,07,25,22,28,16.10
2005,07,25,22,29,16.00
2005,07,25,22,30,15.90
2005,07,25,22,31,15.90
2005,07,25,22,32,15.80
2005,07,25,22,33,15.80
2005,07,25,22,34,15.80
2005,07,25,22,35,15.80
2005,07,25,22,36,15.80
2005,07,25,22,37,15.80
2005,07,25,22,38,15.70
2005,07,25,22,39,15.70
2005,07,25,22,40,15.70
2005,07,25,22,41,15.60
2005,07,25,22,42,15.60
2005,07,25,22,43,15.60
2005,07,25,22,44,15.60
2005,07,25,22,45,15.50
2005,07,25,22,46,15.50
2005,07,25,22,47,15.50
2005,07,25,22,48,15.50
2005,07,25,22,49,15.50
2005,07,25,22,50,15.60
2005,07,25,22,51,15.60
2005,07,25,22,52,15.60
2005,07,25,22,53,15.60
2005,07,25,22,54,15.70
2005,07,25,22,55,15.70
2005,07,25,22,56,15.60
2005,07,25,22,57,15.60
2005,07,25,22,58,15.60
2005,07,25,22,59,15.60
2005,07,25,23,00,15.60
2005,07,25,23,01,15.50
2005,07,25,23,02,15.50
2005,07,25,23,03,15.50
2005,07,25,23,04,15.50
2005,07,25,23,05,15.50
2005,07,25,23,06,15.50
2005,07,25,23,07,15.50
2005,07,25,23,08,15.50
2005,07,25,23,09,15.50
2005,07,25,23,10,15.50
2005,07,25,23,11,15.50
2005,07,25,23,12,15.50
2005,07,25,23,13,15.50
2005,07,25,23,14,15.50
2005,07,25,23,15,15.40
2005,07,25,23,16,15.40
2005,07,25,23,17,15.40
2005,07,25,23,18,15.40
2005,07,25,23,19,15.50
2005,07,25,23,20,15.50
2005,07,25,23,21,15.50
2005,07,25,23,22,15.50
2005,07,25,23,23,15.60
2005,07,25,23,24,15.60
2005,07,25,23,25,15.60
2005,07,25,23,26,15.60
2005,07,25,23,27,15.60
2005,07,25,23,28,15.60
2005,07,25,23,29,15.50
2005,07,25,23,30,15.50
2005,07,25,23,31,15.50
2005,07,25,23,32,15.50
2005,07,25,23,33,15.50
2005,07,25,23,34,15.50
2005,07,25,23,35,15.50
2005,07,25,23,36,15.50
2005,07,25,23,37,15.50
2005,07,25,23,38,15.40
2005,07,25,23,39,15.40
2005,07,25,23,40,15.40
2005,07,25,23,41,15.50
2005,07,25,23,42,15.50
2005,07,25,23,43,15.50
2005,07,25,23,44,15.50
2005,07,25,23,45,15.50
2005,07,25,23,46,15.50
2005,07,25,23,47,15.50
2005,07,25,23,48,15.50
2005,07,25,23,49,15.50
2005,07,25,23,50,15.50
2005,07,25,23,51,15.50
2005,07,25,23,52,15.40
2005,07,25,23,53,15.40
2005,07,25,23,54,15.40
2005,07,25,23,55,15.40
2005,07,25,23,56,15.40
2005,07,25,23,57,15.30
2005,07,25,23,58,15.30
2005,07,25,23,59,15.30
